EN

Hourly Weather Brčko

Today, 27 October, Tuesday

Time Temperature Precipitation Wind Pressure Humidity
00:00 +13°C° 0 mm 2 mps 750 mmHg 79%
01:00 +13°C° 0 mm 2 mps 750 mmHg 81%
02:00 +12°C° 0 mm 2 mps 750 mmHg 81%
03:00 +12°C° 0 mm 2 mps 750 mmHg 82%
04:00 +12°C° 0 mm 2 mps 750 mmHg 83%
05:00 +12°C° 0 mm 2 mps 750 mmHg 82%
06:00 +12°C° 0 mm 2 mps 750 mmHg 81%
07:00 +12°C° 0 mm 2 mps 750 mmHg 80%
08:00 +14°C° 0 mm 2 mps 750 mmHg 71%
09:00 +17°C° 0 mm 2 mps 750 mmHg 63%
10:00 +19°C° 0 mm 2 mps 750 mmHg 54%
11:00 +20°C° 0 mm 2 mps 750 mmHg 50%
12:00 +23°C° 0 mm 1 mps 750 mmHg 47%
13:00 +24°C° 0 mm 1 mps 749 mmHg 43%
14:00 +23°C° 0 mm 1 mps 749 mmHg 48%
15:00 +22°C° 0 mm 1 mps 749 mmHg 52%
16:00 +20°C° 0 mm 2 mps 749 mmHg 56%
17:00 +19°C° 0 mm 1 mps 750 mmHg 59%
18:00 +18°C° 0 mm 1 mps 750 mmHg 62%
19:00 +15°C° 0 mm 1 mps 751 mmHg 66%
20:00 +15°C° 0 mm 1 mps 751 mmHg 71%
21:00 +14°C° 0 mm 1 mps 751 mmHg 76%
22:00 +14°C° 0 mm 2 mps 752 mmHg 81%
23:00 +13°C° 0 mm 2 mps 752 mmHg 86%

Tomorrow, 28 October, Wednesday

Time Temperature Precipitation Wind Pressure Humidity
00:00 +13°C° 0 mm 2 mps 752 mmHg 90%
01:00 +12°C° 0 mm 2 mps 752 mmHg 94%
02:00 +12°C° 0 mm 2 mps 752 mmHg 94%
03:00 +12°C° 0 mm 2 mps 752 mmHg 94%
04:00 +10°C° 0 mm 2 mps 752 mmHg 95%
05:00 +12°C° 0 mm 2 mps 753 mmHg 94%
06:00 +12°C° 0 mm 2 mps 753 mmHg 94%
07:00 +12°C° 0 mm 2 mps 754 mmHg 94%
08:00 +13°C° 0 mm 2 mps 754 mmHg 88%
09:00 +14°C° 0 mm 2 mps 754 mmHg 83%
10:00 +15°C° 0 mm 2 mps 754 mmHg 78%
11:00 +16°C° 0 mm 2 mps 754 mmHg 74%
12:00 +17°C° 0 mm 2 mps 754 mmHg 71%
13:00 +19°C° 0 mm 1 mps 754 mmHg 68%
14:00 +18°C° 0 mm 1 mps 754 mmHg 69%
15:00 +18°C° 0 mm 1 mps 754 mmHg 71%
16:00 +18°C° 0 mm 1 mps 754 mmHg 72%
17:00 +16°C° 0 mm 1 mps 754 mmHg 76%
18:00 +15°C° 0 mm 1 mps 754 mmHg 79%
19:00 +14°C° 0 mm 1 mps 755 mmHg 83%
20:00 +14°C° 0 mm 1 mps 755 mmHg 85%
21:00 +13°C° 0 mm 1 mps 755 mmHg 87%
22:00 +13°C° 0 mm 1 mps 755 mmHg 88%
23:00 +12°C° 0 mm 1 mps 755 mmHg 89%

Day after tomorrow, 29 October, Thursday

Time Temperature Precipitation Wind Pressure Humidity
00:00 +12°C° 0 mm 1 mps 755 mmHg 90%
01:00 +12°C° 0 mm 1 mps 755 mmHg 90%
02:00 +12°C° 0 mm 1 mps 755 mmHg 91%
03:00 +11°C° 0 mm 1 mps 755 mmHg 91%
04:00 +11°C° 0 mm 1 mps 755 mmHg 92%
05:00 +11°C° 0 mm 1 mps 755 mmHg 92%
06:00 +11°C° 0 mm 1 mps 755 mmHg 92%
07:00 +10°C° 0 mm 0 mps 756 mmHg 92%
08:00 +12°C° 0 mm 0 mps 756 mmHg 86%
09:00 +13°C° 0 mm 0 mps 756 mmHg 79%
10:00 +15°C° 0 mm 0 mps 756 mmHg 73%
11:00 +16°C° 0 mm 0 mps 756 mmHg 69%
12:00 +19°C° 0 mm 1 mps 755 mmHg 65%
13:00 +20°C° 0 mm 1 mps 755 mmHg 61%
14:00 +19°C° 0 mm 1 mps 755 mmHg 64%
15:00 +18°C° 0 mm 1 mps 755 mmHg 67%
16:00 +18°C° 0 mm 1 mps 755 mmHg 69%
17:00 +16°C° 0.1 mm 1 mps 756 mmHg 72%
18:00 +15°C° 0.1 mm 2 mps 756 mmHg 74%
19:00 +15°C° 0.1 mm 2 mps 757 mmHg 76%
20:00 +13°C° 0.1 mm 3 mps 757 mmHg 76%
21:00 +13°C° 0.1 mm 4 mps 757 mmHg 76%
22:00 +12°C° 0.1 mm 4 mps 758 mmHg 76%
23:00 +12°C° 0.9 mm 4 mps 758 mmHg 80%

30 October, Friday

Time Temperature Precipitation Wind Pressure Humidity
00:00 +11°C° 0.9 mm 3 mps 758 mmHg 85%
01:00 +12°C° 0.9 mm 2 mps 758 mmHg 90%
02:00 +12°C° 0.7 mm 2 mps 759 mmHg 90%
03:00 +10°C° 0.7 mm 2 mps 759 mmHg 90%
04:00 +10°C° 0.7 mm 3 mps 760 mmHg 91%
05:00 +10°C° 0.1 mm 3 mps 760 mmHg 89%
06:00 +10°C° 0.1 mm 3 mps 761 mmHg 87%
07:00 +10°C° 0.1 mm 3 mps 761 mmHg 85%
08:00 +11°C° 0 mm 3 mps 761 mmHg 78%
09:00 +11°C° 0 mm 3 mps 761 mmHg 71%
10:00 +12°C° 0 mm 4 mps 762 mmHg 64%
11:00 +13°C° 0 mm 4 mps 761 mmHg 60%
12:00 +13°C° 0 mm 4 mps 761 mmHg 55%
13:00 +14°C° 0 mm 4 mps 761 mmHg 51%
14:00 +13°C° 0 mm 3 mps 761 mmHg 53%
15:00 +13°C° 0 mm 3 mps 761 mmHg 55%
16:00 +13°C° 0 mm 2 mps 761 mmHg 57%
17:00 +12°C° 0 mm 2 mps 761 mmHg 60%
18:00 +10°C° 0 mm 2 mps 761 mmHg 64%
19:00 +10°C° 0 mm 1 mps 762 mmHg 67%
20:00 +10°C° 0 mm 1 mps 762 mmHg 69%
21:00 +10°C° 0 mm 1 mps 762 mmHg 70%
22:00 +9°C° 0 mm 1 mps 762 mmHg 71%
23:00 +10°C° 0 mm 1 mps 762 mmHg 70%

31 October, Saturday

Time Temperature Precipitation Wind Pressure Humidity
00:00 +10°C° 0 mm 1 mps 762 mmHg 70%
01:00 +9°C° 0 mm 2 mps 762 mmHg 70%
02:00 +9°C° 0.1 mm 2 mps 761 mmHg 71%
03:00 +9°C° 0.1 mm 2 mps 761 mmHg 73%
04:00 +10°C° 0.1 mm 1 mps 761 mmHg 75%
05:00 +9°C° 0.1 mm 2 mps 761 mmHg 77%
06:00 +9°C° 0.1 mm 2 mps 761 mmHg 78%
07:00 +9°C° 0.1 mm 2 mps 761 mmHg 80%
08:00 +10°C° 0.2 mm 2 mps 761 mmHg 80%
09:00 +10°C° 0.2 mm 2 mps 761 mmHg 81%
10:00 +10°C° 0.2 mm 3 mps 761 mmHg 81%
11:00 +11°C° 0 mm 3 mps 760 mmHg 80%
12:00 +11°C° 0 mm 3 mps 760 mmHg 78%
13:00 +12°C° 0 mm 3 mps 760 mmHg 77%
14:00 +12°C° 0 mm 3 mps 760 mmHg 78%
15:00 +11°C° 0 mm 3 mps 760 mmHg 79%
16:00 +12°C° 0 mm 2 mps 759 mmHg 79%
17:00 +12°C° 0 mm 2 mps 759 mmHg 80%
18:00 +12°C° 0 mm 2 mps 759 mmHg 82%
19:00 +10°C° 0 mm 2 mps 759 mmHg 83%
20:00 +11°C° 0.2 mm 1 mps 759 mmHg 85%
21:00 +11°C° 0.2 mm 1 mps 759 mmHg 88%
22:00 +11°C° 0.2 mm 1 mps 759 mmHg 90%
23:00 +11°C° 0.4 mm 1 mps 758 mmHg 91%

1 November, Sunday

Time Temperature Precipitation Wind Pressure Humidity
00:00 +11°C° 0.4 mm 1 mps 758 mmHg 93%
01:00 +11°C° 0.4 mm 1 mps 758 mmHg 95%
02:00 +11°C° 0.6 mm 1 mps 758 mmHg 94%
03:00 +11°C° 0.6 mm 1 mps 758 mmHg 94%
04:00 +11°C° 0.6 mm 1 mps 758 mmHg 94%
05:00 +11°C° 0.2 mm 1 mps 758 mmHg 93%
06:00 +10°C° 0.2 mm 1 mps 758 mmHg 93%
07:00 +10°C° 0.2 mm 1 mps 758 mmHg 92%
08:00 +11°C° 0 mm 1 mps 758 mmHg 85%
09:00 +12°C° 0 mm 2 mps 759 mmHg 79%
10:00 +12°C° 0 mm 2 mps 759 mmHg 72%
11:00 +13°C° 0 mm 2 mps 759 mmHg 67%
12:00 +13°C° 0 mm 2 mps 759 mmHg 62%
13:00 +14°C° 0 mm 2 mps 758 mmHg 57%
14:00 +13°C° 0 mm 2 mps 758 mmHg 58%
15:00 +13°C° 0 mm 2 mps 758 mmHg 60%
16:00 +12°C° 0 mm 2 mps 758 mmHg 62%
17:00 +10°C° 0 mm 2 mps 759 mmHg 66%
18:00 +10°C° 0 mm 1 mps 759 mmHg 69%
19:00 +9°C° 0 mm 1 mps 759 mmHg 72%
20:00 +8°C° 0 mm 1 mps 759 mmHg 74%
21:00 +8°C° 0 mm 1 mps 759 mmHg 75%
22:00 +8°C° 0 mm 1 mps 759 mmHg 76%
23:00 +7°C° 0 mm 2 mps 759 mmHg 78%
Show more